Flag for U.S.A. Weather past 2 weeks in Bakersfield, California, U.S.A.

Now
84 °F

Sunny.


Feels Like: 81 °F
Forecast: 57 / 87 °F
Wind: 8 mph from Northwest

Location: Meadows Field

Current Time: Apr 18, 2015 at 1:49:35 PM

Latest Report: Apr 18, 2015 at 12:54 PM


Visibility: 10 mi

Pressure: 29.94 "Hg

Humidity: 11%

Dew point: 25 °F

Location of BakersfieldLocation

Historic Weather in Bakersfield — Graph

°F

Bakersfield temperature yesterday

Maximum temperature yesterday: 85 °F (at 3:54 PM)
Minimum temperature yesterday: 54 °F (at 6:54 AM)
Average temperature yesterday: 71 °F

Past Weeks' High & Low Weather Summary

 TemperatureHumidityPressure
High89 °F (Apr 13, 4:54 PM)89% (Apr 8, 6:54 AM)30.26 "Hg (Apr 8, 6:54 AM)
Low44 °F (Apr 8, 6:54 AM)5% (Apr 16, 12:54 PM)29.79 "Hg (Apr 5, 6:54 PM)
Average63 °F36%29.99 "Hg
* Reported Apr 3 12:54 PM — Apr 18 12:54 PM, Bakersfield, Weather by CustomWeather, © 2015

Note: Actual official high and low records may vary slightly from our data, if they occured in-between our weather recording intervals... More about our weather records

Advertising

Bakersfield weather history for previous 24 hours

 ConditionsComfort  
Time TempWeatherWind HumidityBarometerVisibility
12:54 PM
Sat, Apr 18
84 °FSunny.8 mph11%29.94 "Hg10 mi
11:54 AM81 °FSunny.N/A14%29.97 "Hg10 mi
10:54 AM78 °FSunny.No wind16%29.99 "Hg10 mi
9:54 AM75 °FSunny.7 mph17%30.00 "Hg10 mi
8:54 AM69 °FSunny.6 mph21%30.01 "Hg10 mi
7:54 AM66 °FSunny.3 mph24%30.02 "Hg10 mi
6:54 AM61 °FClear.6 mph29%30.01 "Hg10 mi
5:54 AM58 °FClear.No wind31%30.01 "Hg10 mi
4:54 AM58 °FClear.No wind28%30.00 "Hg10 mi
3:54 AM58 °FClear.No wind31%29.99 "Hg10 mi
2:54 AM61 °FClear.3 mph29%30.00 "Hg10 mi
1:54 AM60 °FClear.5 mph30%30.01 "Hg10 mi
12:54 AM62 °FClear.5 mph30%30.01 "Hg10 mi
11:54 PM
Fri, Apr 17
63 °FClear.6 mph30%30.01 "Hg10 mi
10:54 PM68 °FClear.No wind19%29.98 "Hg10 mi
9:54 PM68 °FClear.7 mph19%29.98 "Hg10 mi
8:54 PM69 °FClear.6 mph18%29.96 "Hg10 mi
7:54 PM77 °FSunny.8 mph14%29.94 "Hg10 mi
6:54 PM81 °FSunny.8 mph13%29.93 "Hg10 mi
5:54 PM83 °FSunny.14 mph11%29.93 "Hg10 mi
4:54 PM84 °FSunny.10 mph8%29.94 "Hg10 mi
3:54 PM85 °FSunny.7 mph10%29.96 "Hg10 mi
2:54 PM84 °FSunny.10 mph11%29.98 "Hg10 mi
1:54 PM82 °FSunny.7 mph11%30.00 "Hg10 mi
Weather by CustomWeather, © 2015

See weather overviewHow to use our weather pages